Date,TemperatureHighF,TemperatureAvgF,TemperatureLowF,DewpointHighF,DewpointAvgF,DewpointLowF,HumidityHigh,HumidityAvg,HumidityLow,PressureMaxIn,PressureMinIn,WindSpeedMaxMPH,WindSpeedAvgMPH,GustSpeedMaxMPH,PrecipitationSumIn
2013-1-1,27,22,17,20,14,10,80,71,59,30.18,30.04,17,7,19,0.00
2013-1-2,26,23,18,21,17,13,83,80,76,30.20,30.09,18,6,18,0.00
2013-1-3,29,25,19,26,20,12,87,81,74,30.17,30.06,21,9,21,0.00
2013-1-4,32,28,25,24,22,21,84,78,71,30.19,30.00,30,13,30,0.00
2013-1-5,36,28,18,31,24,15,94,85,70,30.29,30.01,17,7,17,0.00
2013-1-6,36,34,32,33,30,27,93,87,78,30.27,29.90,20,10,20,0.07
2013-1-7,38,32,29,27,25,23,86,75,60,30.36,30.13,26,10,26,0.00
2013-1-8,40,32,27,29,26,23,84,76,64,30.25,30.14,14,7,15,0.00
2013-1-9,46,39,31,35,30,26,85,70,49,30.42,30.00,32,15,32,0.01
2013-1-10,42,33,23,33,28,21,94,80,61,30.59,30.17,17,5,17,0.09
2013-1-11,55,45,36,51,42,33,96,91,81,30.16,29.74,22,10,22,0.53
2013-1-12,59,52,47,50,46,37,92,81,65,29.92,29.79,20,8,20,0.00
2013-1-13,47,37,28,39,35,26,96,93,67,30.04,29.77,21,6,21,0.46
2013-1-14,28,22,15,26,18,13,92,83,72,30.46,30.04,26,8,26,0.00
2013-1-15,30,21,12,23,16,9,94,83,64,30.47,30.19,9,2,9,0.06
2013-1-16,36,27,15,30,20,13,93,76,47,30.18,29.81,29,9,29,0.00
2013-1-17,34,28,17,30,20,7,87,73,56,30.33,29.96,31,11,31,0.00
2013-1-18,36,25,11,24,17,8,91,72,52,30.45,29.94,34,12,35,0.00
2013-1-19,46,42,36,36,32,24,76,67,60,29.94,29.52,29,16,29,0.00
2013-1-20,44,22,14,36,11,4,77,64,46,30.19,29.51,45,19,45,0.00
2013-1-21,16,12,5,12,5,-3,86,71,59,30.17,29.99,26,10,26,0.00
2013-1-22,10,5,-1,3,-3,-9,80,69,55,30.33,30.14,25,10,25,0.00
2013-1-23,18,10,2,12,5,-3,88,79,66,30.33,30.11,17,6,17,0.00
2013-1-24,17,10,5,12,5,0,89,77,60,30.64,30.17,15,4,15,0.00
2013-1-25,22,17,11,16,12,4,88,81,73,30.55,30.05,17,6,17,0.00
2013-1-26,28,21,13,19,16,10,89,81,62,30.47,30.07,16,6,16,0.04
2013-1-27,29,22,11,27,17,8,92,80,60,30.50,30.13,21,7,21,0.00
2013-1-28,45,37,29,44,36,27,97,95,91,30.17,29.85,16,10,16,0.37
2013-1-29,58,52,37,56,50,36,98,95,89,29.87,29.27,14,8,29,0.40
2013-1-30,52,46,32,51,45,28,98,94,85,29.33,29.08,31,8,31,0.56
2013-1-31,32,22,16,29,16,12,90,79,67,29.90,29.22,43,18,43,0.00